Stations météo

Publicité
Angers, France (7230): Température de l'air & dewpoint: 20.06.2019 20:00:00 - 26.06.2019 20:00:00 (CEST)Angers, France (7230): Température de l'air 5cm: 20.06.2019 20:00:00 - 26.06.2019 20:00:00 (CEST)Angers, France (7230): Température de l'air -20cm: 20.06.2019 20:00:00 - 26.06.2019 20:00:00 (CEST)Angers, France (7230): Vitesse du vent & gusts: 20.06.2019 20:00:00 - 26.06.2019 20:00:00 (CEST)Angers, France (7230): Direction du vent: 20.06.2019 20:00:00 - 26.06.2019 20:00:00 (CEST)Angers, France (7230): reduced air pressure: 20.06.2019 20:00:00 - 26.06.2019 20:00:00 (CEST)Angers, France (7230): visibility: 20.06.2019 20:00:00 - 26.06.2019 20:00:00 (CEST)Angers, France (7230): Ensoleillement: 20.06.2019 20:00:00 - 26.06.2019 20:00:00 (CEST)Angers, France (7230): Quantités de précipitations: 20.06.2019 20:00:00 - 26.06.2019 20:00:00 (CEST)
Date & Time tt [°C] td [°C] tt 5cm [°C] tt -20cm [°C] ff [km/h] ff [knt] fx [km/h] fx [knt] dd ppp [hPa] vv [km] sd [min] rr [mm]
26.06.2019 20:00:00 35,1 15,4 36,9 23,9 13 7 32 18 E 1016,5 20 60 0,0
26.06.2019 19:00:00 35,5 15,3 38,4 23,8 15 8 29 16 ESE 1016,4 20 60 0,0
26.06.2019 18:00:00 36,0 16,7 39,1 23,5 12 7 34 18 ESE 1016,7 20 60 0,0
26.06.2019 17:00:00 35,7 17,4 39,8 23,1 14 8 32 17 ESE 1016,9 20 60 0,0
26.06.2019 16:00:00 35,2 17,0 39,0 22,6 17 9 36 19 ESE 1017,0 20 60 0,0
26.06.2019 15:00:00 34,0 18,5 38,3 22,1 16 9 35 19 E 1017,4 20 60 0,0
26.06.2019 14:00:00 32,6 19,1 36,8 21,7 18 10 34 18 E 1017,8 19 60 0,0
26.06.2019 13:00:00 31,0 20,0 35,6 21,3 14 8 34 18 ENE 1018,1 19 60 0,0
26.06.2019 12:00:00 28,8 19,1 33,3 21,1 18 10 38 20 ENE 1019,0 20 60 0,0
26.06.2019 11:00:00 26,8 20,2 30,5 21,0 15 8 27 14 NE 1019,1 20 58 0,0
26.06.2019 10:00:00 24,4 19,2 27,3 20,9 16 9 26 14 NE 1019,8 20 60 0,0
26.06.2019 09:00:00 22,9 18,7 22,5 21,0 12 7 20 11 NNE 1020,2 19 60 0,0
26.06.2019 08:00:00 21,2 18,2 19,5 21,0 13 7 22 12 NNE 1019,4 18 60 0,0
26.06.2019 07:00:00 19,8 18,1 18,9 21,2 12 6 19 11 N 1019,3 14 26 0,0
26.06.2019 06:00:00 19,8 18,3 18,9 21,3 11 6 21 11 N 1019,4 11 0 0,0
26.06.2019 05:00:00 19,8 18,3 18,9 21,4 9 5 16 9 N 1019,3 12 0 0,4
26.06.2019 04:00:00 20,5 18,4 19,4 21,6 9 5 18 10 NNE 1019,3 14 0 0,0
26.06.2019 03:00:00 21,0 18,8 20,2 21,7 9 5 18 10 NNE 1019,5 18 0 0,0
26.06.2019 02:00:00 21,2 19,1 19,4 21,8 8 4 16 8 N 1019,9 20 0 0,0
26.06.2019 01:00:00 20,8 18,6 19,6 22,0 6 3 10 6 N 1019,8 20 0 0,0
26.06.2019 00:00:00 21,4 18,6 20,4 22,2 7 4 12 7 N 1019,9 20 0 0,0
25.06.2019 23:00:00 22,2 18,6 21,4 22,4 8 4 14 7 N 1019,3 20 0 0,0
25.06.2019 22:00:00 23,0 18,5 22,1 22,5 9 5 24 13 NNW 1019,3 20 0 0,0
25.06.2019 21:00:00 25,2 18,9 25,0 22,5 14 8 28 15 NNW 1018,9 20 0 0,0
25.06.2019 20:00:00 27,3 18,3 28,2 22,4 14 7 22 12 N 1018,4 20 46 0,0
25.06.2019 19:00:00 29,1 18,8 29,3 22,3 9 5 20 11 NNE 1017,9 20 25 0,0
25.06.2019 18:00:00 28,7 19,1 32,0 22,1 10 5 16 8 NE 1017,9 20 7 0,0
25.06.2019 17:00:00 29,9 18,3 31,8 21,8 6 3 19 10 NW 1017,6 20 25 0,0
25.06.2019 16:00:00 29,3 18,1 32,4 21,3 6 3 16 8 NW 1017,7 20 34 0,0
25.06.2019 15:00:00 28,4 18,5 30,8 20,8 6 4 18 10 N 1017,6 20 45 0,0
25.06.2019 14:00:00 27,4 18,9 30,1 20,3 5 3 19 10 NW 1017,7 20 48 0,0
25.06.2019 13:00:00 26,2 18,1 32,4 20,0 6 3 16 9 NW 1017,6 20 60 0,0
25.06.2019 12:00:00 24,8 17,5 30,8 19,7 9 5 16 9 WSW 1017,3 20 60 0,0
25.06.2019 11:00:00 23,0 16,5 24,6 19,5 5 3 15 8 SW 1017,1 20 43 0,0
25.06.2019 10:00:00 21,0 15,3 24,1 19,5 5 3 11 6 S 1016,9 20 38 0,0
25.06.2019 09:00:00 20,2 15,8 20,3 19,4 6 3 11 6 ENE 1016,3 20 60 0,0
25.06.2019 08:00:00 17,3 16,0 15,9 19,5 3 2 9 5 N 1015,9 20 19 0,0
25.06.2019 07:00:00 16,1 15,3 14,9 19,6 2 1 8 5 NNW 1015,8 20 16 0,0
25.06.2019 06:00:00 15,9 14,9 13,7 19,8 5 3 7 4 NNW 1015,4 18 0 0,0
25.06.2019 05:00:00 16,2 15,1 14,5 19,9 5 3 9 5 NNW 1014,9 19 0 0,0
25.06.2019 04:00:00 16,7 15,2 15,2 20,1 3 2 8 5 W 1015,1 20 0 0,0
25.06.2019 03:00:00 17,2 15,2 15,0 20,2 5 3 17 9 NW 1014,7 20 0 0,0
25.06.2019 02:00:00 18,2 15,8 17,3 20,3 11 6 25 14 N 1014,5 20 0 0,0
25.06.2019 01:00:00 19,0 17,0 18,4 20,4 12 7 25 13 N 1014,7 20 0 0,0
25.06.2019 00:00:00 19,4 16,8 19,0 20,5 9 5 23 13 NNW 1015,0 20 0 0,0
24.06.2019 23:00:00 19,9 17,1 19,5 20,6 13 7 27 15 N 1014,8 20 0 0,0
24.06.2019 22:00:00 20,5 17,1 20,2 20,7 11 6 24 13 NNW 1014,6 20 0 0,0
24.06.2019 21:00:00 20,8 17,2 20,8 20,7 13 7 26 14 N 1014,1 20 0 0,0
24.06.2019 20:00:00 21,8 17,4 22,3 20,7 13 7 20 11 NNW 1014,6 20 0 0,0
24.06.2019 19:00:00 22,2 17,8 22,4 20,7 9 5 18 10 N 1014,4 20 0 0,0
24.06.2019 18:00:00 22,9 17,1 23,1 20,6 9 5 22 12 N 1015,4 20 4 0,0
24.06.2019 17:00:00 22,8 16,6 24,7 20,5 13 7 24 13 NNE 1015,1 20 0 0,0
24.06.2019 16:00:00 23,3 16,8 26,0 20,3 15 8 27 14 NNE 1015,3 20 24 0,0
24.06.2019 15:00:00 21,6 17,0 19,6 20,2 13 7 23 12 N 1015,9 20 0 0,2
24.06.2019 14:00:00 21,0 16,8 21,7 20,1 17 9 27 15 NE 1015,4 20 0 0,0
24.06.2019 13:00:00 19,2 16,2 19,9 20,2 11 6 16 9 NNE 1016,3 20 0 0,0
24.06.2019 12:00:00 18,1 15,5 17,3 20,2 10 6 20 11 NE 1016,7 20 0 0,0
24.06.2019 11:00:00 17,5 15,3 17,0 20,3 9 5 16 9 N 1017,1 19 0 1,6
24.06.2019 10:00:00 18,1 15,4 17,1 20,4 7 4 14 8 WNW 1018,3 15 0 1,0
24.06.2019 09:00:00 19,1 15,0 19,8 20,5 6 3 13 7 WNW 1016,8 20 1 0,0
24.06.2019 08:00:00 18,7 15,4 17,1 20,5 0 0 12 6 N 1015,8 19 16 0,0
24.06.2019 07:00:00 17,6 15,4 16,9 20,7 8 4 17 9 NNW 1015,4 20 0 0,0
24.06.2019 06:00:00 18,0 15,3 17,4 20,8 5 3 15 8 W 1015,6 20 0 0,0
24.06.2019 05:00:00 18,3 15,4 17,3 20,9 7 4 16 9 W 1015,1 20 0 0,0
24.06.2019 04:00:00 18,7 15,6 17,9 21,1 7 4 11 6 W 1014,8 20 0 0,0
24.06.2019 03:00:00 19,2 15,9 15,8 21,3 8 4 11 6 SW 1015,3 20 0 0,0
24.06.2019 02:00:00 19,2 15,5 16,3 21,5 0 0 12 6 N 1014,3 20 0 0,0
24.06.2019 01:00:00 20,4 16,0 18,6 21,7 7 4 18 10 W 1014,3 20 0 0,0
24.06.2019 00:00:00 21,6 16,5 19,4 21,8 5 3 21 11 WSW 1013,7 20 0 0,0
23.06.2019 23:00:00 23,3 16,3 22,3 21,9 10 5 31 17 WSW 1013,5 20 0 0,0
23.06.2019 22:00:00 25,5 14,9 24,5 22,0 18 10 31 17 SW 1012,6 20 35 0,0
23.06.2019 21:00:00 28,5 13,2 29,3 22,1 15 8 33 18 SW 1011,7 20 54 0,0
23.06.2019 20:00:00 30,1 14,6 30,3 22,1 10 5 24 13 S 1010,8 19 2 0,0
23.06.2019 19:00:00 30,6 12,5 31,9 21,9 11 6 27 14 S 1010,4 20 21 0,0
23.06.2019 18:00:00 30,6 13,4 33,3 21,6 14 7 31 17 ESE 1010,5 20 60 0,0
23.06.2019 17:00:00 30,4 13,7 34,7 21,2 17 9 31 17 SE 1010,8 20 60 0,0
23.06.2019 16:00:00 29,4 14,4 33,5 20,8 14 8 32 17 SE 1011,3 20 60 0,0
23.06.2019 15:00:00 28,7 13,8 32,7 20,3 15 8 34 18 SE 1011,6 20 60 0,0
23.06.2019 14:00:00 27,6 14,9 29,1 19,9 13 7 28 15 SE 1011,8 20 25 0,0
23.06.2019 13:00:00 26,4 14,8 30,5 19,6 11 6 24 13 ESE 1012,1 20 45 0,0
23.06.2019 12:00:00 25,6 14,7 29,1 19,3 13 7 26 14 ESE 1012,5 20 60 0,0
23.06.2019 11:00:00 24,1 14,8 24,1 19,1 14 8 26 14 ESE 1013,1 20 60 0,0
23.06.2019 10:00:00 21,6 14,0 19,9 19,1 12 6 24 13 E 1013,4 20 42 0,0
23.06.2019 09:00:00 18,8 14,1 18,5 19,1 7 4 16 9 E 1013,6 20 3 0,0
23.06.2019 08:00:00 16,9 13,4 14,2 19,2 7 4 14 8 E 1013,8 20 34 0,0
23.06.2019 07:00:00 14,0 12,6 9,1 19,4 3 2 5 3 ENE 1014,0 20 26 0,0
23.06.2019 06:00:00 13,0 11,1 9,3 19,6 2 1 4 2 NNE 1014,2 20 0 0,0
23.06.2019 05:00:00 13,7 11,2 9,8 19,8 3 2 6 3 NE 1014,1 20 0 0,0
23.06.2019 04:00:00 14,3 10,7 9,8 20,0 4 2 8 4 ENE 1014,6 20 0 0,0
23.06.2019 03:00:00 14,6 10,2 10,0 20,2 2 1 5 3 N 1015,1 20 0 0,0
23.06.2019 02:00:00 15,8 9,5 10,4 20,5 2 1 9 5 NNE 1015,5 20 0 0,0
23.06.2019 01:00:00 17,3 9,7 14,3 20,7 7 4 13 7 ENE 1015,7 20 0 0,0
23.06.2019 00:00:00 17,7 9,6 14,2 20,9 6 3 11 6 ENE 1016,1 20 0 0,0
22.06.2019 23:00:00 19,4 9,3 15,6 21,2 6 4 12 7 ENE 1016,0 20 0 0,0
22.06.2019 22:00:00 20,4 9,0 17,2 21,3 7 4 15 8 ENE 1015,6 20 23 0,0
22.06.2019 21:00:00 22,8 8,9 22,7 21,4 9 5 20 11 NE 1015,5 20 33 0,0
22.06.2019 20:00:00 24,5 8,0 26,4 21,3 13 7 21 11 NE 1015,8 20 54 0,0
22.06.2019 19:00:00 25,7 8,7 30,2 21,2 10 6 23 13 E 1015,9 20 58 0,0
22.06.2019 18:00:00 25,4 8,8 28,3 21,0 11 6 29 15 ENE 1016,2 20 44 0,0
22.06.2019 17:00:00 25,1 8,1 26,7 20,7 8 4 26 14 ENE 1016,8 20 40 0,0
22.06.2019 16:00:00 24,8 8,7 31,2 20,2 13 7 30 16 NE 1017,4 20 60 0,0
22.06.2019 15:00:00 24,3 8,3 30,4 19,7 14 8 31 17 ENE 1018,0 20 60 0,0
22.06.2019 14:00:00 23,9 8,3 30,1 19,2 11 6 24 13 ENE 1018,6 20 60 0,0
22.06.2019 13:00:00 23,3 8,2 27,4 18,8 13 7 24 13 E 1019,0 20 57 0,0
22.06.2019 12:00:00 22,3 8,8 26,4 18,5 11 6 24 13 ENE 1019,4 20 60 0,0
22.06.2019 11:00:00 21,0 8,9 24,8 18,4 11 6 20 11 ESE 1019,9 20 60 0,0
22.06.2019 10:00:00 19,5 9,4 20,4 18,3 8 5 19 10 ESE 1020,6 20 60 0,0
22.06.2019 09:00:00 16,9 9,8 16,2 18,4 10 6 21 11 E 1020,5 20 60 0,0
22.06.2019 08:00:00 13,6 10,0 9,5 18,5 6 3 11 6 NE 1020,8 20 60 0,0
22.06.2019 07:00:00 11,0 9,1 5,5 18,8 3 2 6 4 N 1020,8 20 14 0,0
22.06.2019 06:00:00 10,4 8,7 4,8 19,0 4 2 5 3 N 1020,5 20 0 0,0
22.06.2019 05:00:00 11,3 8,9 5,9 19,2 3 1 9 5 N 1020,6 20 0 0,0
22.06.2019 04:00:00 12,2 9,2 10,2 19,4 6 3 16 9 NE 1020,9 20 0 0,0
22.06.2019 03:00:00 13,0 9,4 11,0 19,7 6 4 13 7 NNE 1021,2 20 0 0,0
22.06.2019 02:00:00 13,6 10,0 11,0 19,9 7 4 11 6 N 1021,5 20 0 0,0
22.06.2019 01:00:00 14,3 10,1 11,1 20,1 5 3 11 6 N 1021,4 20 0 0,0
22.06.2019 00:00:00 15,4 10,2 13,2 20,3 6 4 16 8 N 1021,3 20 0 0,0
21.06.2019 23:00:00 16,6 9,5 14,6 20,5 8 4 19 10 N 1021,1 20 0 0,0
21.06.2019 22:00:00 18,4 8,1 15,5 20,6 7 4 14 8 NNW 1020,5 20 35 0,0
21.06.2019 21:00:00 21,0 7,2 23,0 20,7 9 5 22 12 N 1020,2 20 57 0,0
21.06.2019 20:00:00 22,4 7,8 27,0 20,6 11 6 27 14 N 1020,0 20 60 0,0
21.06.2019 19:00:00 23,2 7,7 27,3 20,5 11 6 22 12 N 1019,8 20 60 0,0
21.06.2019 18:00:00 22,3 7,7 24,0 20,4 10 5 21 11 N 1019,9 20 10 0,0
21.06.2019 17:00:00 21,5 8,0 23,4 20,2 11 6 17 9 NE 1020,2 20 15 0,0
21.06.2019 16:00:00 21,6 7,4 22,6 20,0 3 2 19 10 N 1020,1 20 9 0,0
21.06.2019 15:00:00 21,8 6,5 23,8 19,6 5 3 21 11 NW 1020,4 20 20 0,0
21.06.2019 14:00:00 21,8 8,3 23,1 19,2 14 7 29 15 N 1020,5 20 49 0,0
21.06.2019 13:00:00 20,6 8,2 26,4 18,8 11 6 21 11 N 1020,7 20 58 0,0
21.06.2019 12:00:00 19,8 8,2 27,3 18,7 11 6 22 12 N 1020,9 20 60 0,0
21.06.2019 11:00:00 18,7 9,2 24,8 18,5 10 5 17 9 NNE 1020,9 20 60 0,0
21.06.2019 10:00:00 17,1 9,3 20,3 18,5 11 6 22 12 NE 1020,9 20 60 0,0
21.06.2019 09:00:00 15,5 9,2 15,7 18,6 14 8 20 11 NNE 1020,7 20 60 0,0
21.06.2019 08:00:00 13,6 9,6 11,5 18,7 9 5 16 9 N 1020,3 20 60 0,0
21.06.2019 07:00:00 11,5 9,2 9,2 18,9 6 3 11 6 N 1020,1 20 0 0,0
21.06.2019 06:00:00 10,4 8,5 6,7 19,1 5 3 8 5 N 1020,2 20 0 0,0
21.06.2019 05:00:00 10,8 8,2 8,9 19,3 5 3 16 9 N 1019,9 20 0 0,0
21.06.2019 04:00:00 11,0 8,0 7,8 19,6 6 3 10 5 N 1019,8 20 0 0,0
21.06.2019 03:00:00 11,7 8,2 8,5 19,8 6 4 12 7 N 1019,6 20 0 0,0
21.06.2019 02:00:00 12,7 8,6 9,7 20,1 5 3 11 6 N 1019,7 20 0 0,0
21.06.2019 01:00:00 13,6 9,0 10,3 20,3 5 3 11 6 N 1019,4 20 0 0,0
21.06.2019 00:00:00 14,2 9,6 9,6 20,6 6 3 9 5 NNW 1019,0 20 0 0,0
20.06.2019 23:00:00 15,4 9,5 12,1 20,8 5 3 18 10 N 1018,4 20 0 0,0
20.06.2019 22:00:00 17,5 8,9 15,6 20,9 8 5 17 9 N 1017,7 20 35 0,0
20.06.2019 21:00:00 20,0 8,3 20,1 21,0 9 5 15 8 N 1017,3 20 36 0,0
20.06.2019 20:00:00 20,9 7,5 21,8 21,0 8 4 19 10 NNW 1017,0 20 53 0,0

tt = Température de l'air
td = dewpoint
tt 5cm = Température de l'air 5cm
tt -20cm = Température de l'air -20cm
ff = Vitesse du vent
fx = gusts
dd = Direction du vent
ppp = reduced air pressure
vv = visibility
sd = Ensoleillement
rr = Quantités de précipitations

stations d'obs. à proximité